This is the latest recevied weather packets stored in our database for station/object KD0RIH. If no packets are shown the sender has not sent any weather packets the latest 10 day(s).
| Time | Temp. | Humidity | Pressure | Rain* | Wind** | Luminosity | Snow |
|---|---|---|---|---|---|---|---|
| 1777858710 | 20° C | 43% | 1007.9 hPa | 0 mm | - | 0 W/m² | - |
| 1777858408 | 20° C | 43% | 1008 hPa | 0 mm | - | 0 W/m² | - |
| 1777858104 | 20.56° C | 43% | 1008.2 hPa | 0 mm | - | 0 W/m² | - |
| 1777857802 | 20.56° C | 42% | 1008.1 hPa | 0 mm | - | 1 W/m² | - |
| 1777857499 | 21.11° C | 41% | 1008.2 hPa | 0 mm | - | 1 W/m² | - |
| 1777857196 | 21.67° C | 40% | 1008.1 hPa | 0 mm | - | 2 W/m² | - |
| 1777856891 | 22.22° C | 40% | 1008 hPa | 0 mm | - | 4 W/m² | - |
| 1777856587 | 22.78° C | 39% | 1008.2 hPa | 0 mm | - | 6 W/m² | - |
| 1777856284 | 22.78° C | 37% | 1008.2 hPa | 0 mm | - | 9 W/m² | - |
| 1777855981 | 23.33° C | 37% | 1008.4 hPa | 0 mm | - | 13 W/m² | - |
| 1777855679 | 23.89° C | 36% | 1008.3 hPa | 0 mm | - | 17 W/m² | - |
| 1777855376 | 24.44° C | 35% | 1008.2 hPa | 0 mm | - | 23 W/m² | - |
| 1777855072 | 24.44° C | 35% | 1008.1 hPa | 0 mm | - | 31 W/m² | - |
| 1777854769 | 25° C | 34% | 1008.4 hPa | 0 mm | - | 39 W/m² | - |
| 1777854466 | 25° C | 33% | 1008.4 hPa | 0 mm | - | 42 W/m² | - |
| 1777854163 | 25.56° C | 34% | 1008.3 hPa | 0 mm | - | 45 W/m² | - |
| 1777853861 | 25.56° C | 34% | 1008.4 hPa | 0 mm | - | 54 W/m² | - |
| 1777853557 | 25.56° C | 34% | 1008.5 hPa | 0 mm | - | 67 W/m² | - |
| 1777853254 | 26.11° C | 33% | 1008.4 hPa | 0 mm | - | 79 W/m² | - |
| 1777852951 | 26.11° C | 32% | 1008.4 hPa | 0 mm | - | 82 W/m² | - |
| 1777852649 | 26.67° C | 30% | 1008.6 hPa | 0 mm | - | 84 W/m² | - |
| 1777852346 | 27.22° C | 30% | 1008.5 hPa | 0 mm | - | 104 W/m² | - |
| 1777852044 | 26.67° C | 31% | 1008.5 hPa | 0 mm | - | 108 W/m² | - |
| 1777851742 | 26.67° C | 30% | 1008.6 hPa | 0 mm | - | 108 W/m² | - |
| 1777851439 | 26.67° C | 30% | 1008.7 hPa | 0 mm | - | 124 W/m² | - |
* Rain latest hour (hover to see other rain measurements)
** Current wind speed in m/s (hover to see current wind gust speed)